This is the latest recevied weather packets stored in our database for station/object NZ3C. If no packets are shown the sender has not sent any weather packets the latest 1 day(s).
| Time | Temp. | Humidity | Pressure | Rain* | Wind** | Luminosity | Snow |
|---|---|---|---|---|---|---|---|
| 1778048789 | 15.56° C | 82% | 1016.6 hPa | 0 mm | 0 m/s | 0 W/m² | - |
| 1778048486 | 15.56° C | 81% | 1016.7 hPa | 0 mm | 0.45 m/s, 287° | 0 W/m² | - |
| 1778048181 | 16.11° C | 81% | 1016.7 hPa | 0 mm | 0 m/s | 0 W/m² | - |
| 1778047879 | 16.11° C | 81% | 1016.7 hPa | 0 mm | 0 m/s | 0 W/m² | - |
| 1778047578 | 16.11° C | 80% | 1016.8 hPa | 0 mm | 0.45 m/s, 98° | 0 W/m² | - |
| 1778047274 | 16.11° C | 80% | 1017 hPa | 0 mm | 0.89 m/s, 316° | 0 W/m² | - |
| 1778046972 | 16.11° C | 80% | 1017 hPa | 0 mm | 0.45 m/s, 308° | 0 W/m² | - |
| 1778046668 | 16.11° C | 80% | 1016.9 hPa | 0 mm | 0 m/s | 0 W/m² | - |
| 1778046365 | 16.11° C | 80% | 1017 hPa | 0 mm | 0.45 m/s, 74° | 0 W/m² | - |
| 1778046061 | 16.11° C | 80% | 1017 hPa | 0 mm | 0.45 m/s, 116° | 0 W/m² | - |
| 1778045759 | 16.67° C | 79% | 1017.1 hPa | 0 mm | 0.45 m/s, 240° | 0 W/m² | - |
| 1778045457 | 16.67° C | 79% | 1017.3 hPa | 0 mm | 0 m/s | 0 W/m² | - |
| 1778045155 | 16.67° C | 79% | 1017.4 hPa | 0 mm | 0.89 m/s, 65° | 0 W/m² | - |
| 1778044853 | 16.67° C | 79% | 1017.4 hPa | 0 mm | 0.89 m/s, 100° | 0 W/m² | - |
| 1778044549 | 16.67° C | 79% | 1017.6 hPa | 0 mm | 0.45 m/s, 296° | 0 W/m² | - |
| 1778044246 | 16.67° C | 78% | 1017.6 hPa | 0 mm | 0 m/s | 0 W/m² | - |
| 1778043944 | 16.67° C | 78% | 1017.8 hPa | 0 mm | 0.45 m/s, 322° | 0 W/m² | - |
| 1778043641 | 16.67° C | 78% | 1017.7 hPa | 0 mm | 0.45 m/s, 253° | 0 W/m² | - |
| 1778043338 | 16.67° C | 78% | 1017.6 hPa | 0 mm | 0 m/s | 0 W/m² | - |
| 1778043034 | 16.67° C | 78% | 1017.7 hPa | 0 mm | 0.89 m/s, 105° | 0 W/m² | - |
| 1778042732 | 16.67° C | 78% | 1017.6 hPa | 0 mm | 0.45 m/s, 317° | 0 W/m² | - |
| 1778042429 | 16.67° C | 78% | 1017.6 hPa | 0 mm | 0.89 m/s, 277° | 0 W/m² | - |
| 1778042126 | 16.67° C | 78% | 1017.7 hPa | 0 mm | 0.89 m/s, 85° | 0 W/m² | - |
| 1778041825 | 16.67° C | 78% | 1017.8 hPa | 0 mm | 0 m/s | 0 W/m² | - |
| 1778041523 | 16.67° C | 78% | 1018 hPa | 0 mm | 0.89 m/s, 275° | 0 W/m² | - |
* Rain latest hour (hover to see other rain measurements)
** Current wind speed in m/s (hover to see current wind gust speed)